Regional Weather Roundup
Issued by NWS Newport/Morehead, NC

Current Version | Previous Version | Text Only | Print | Product List | Glossary On
Versions: 1 2 3 4 5 6 7 8 9 10 11 12 13 14 15 16 17 18 19 20 21 22 23 24 25 26 27 28 29 30 31 32 33 34 35 36 37 38 39 40 41 42 43 44 45 46 47 48 49 50
000
ASUS42 KMHX 231325
RWRMHX
WEATHER ROUNDUP FOR EASTERN NORTH CAROLINA
NATIONAL WEATHER SERVICE NEWPORT/MOREHEAD CITY NC
900 AM EDT MON APR 23 2018

NOTE: "FAIR" INDICATES FEW OR NO CLOUDS BELOW 12,000 FEET
WITH NO SIGNIFICANT WEATHER AND/OR OBSTRUCTIONS TO VISIBILITY

NCZ015>017-031-032-045>047-102-103-231400-
NORTH COAST

CITY           SKY/WX    TMP DP  RH WIND       PRES   REMARKS
EDENTON        FAIR      65  54  67 E9        30.38S
ELIZABETH CITY FAIR      63  52  67 E10       30.39S
KITTY HAWK     FAIR      58  49  74 E9        30.38S
MANTEO         FAIR      62  51  66 E9        30.39S

$$

NCZ045>047-081-094-103-104-231400-
CENTRAL COAST

CITY           SKY/WX    TMP DP  RH WIND       PRES   REMARKS
FRISCO         FAIR      64  52  64 E12       30.36F

$$

NCZ095-097-098-100-101-231400-
SOUTHERN COAST

CITY           SKY/WX    TMP DP  RH WIND       PRES   REMARKS
BEAUFORT       FAIR      67  52  58 SE13      30.33F
CEDAR ISLAND   NOT AVBL
JACKSONVILLE   PTSUNNY   66  52  60 E15       30.31R
PINEY ISLAND   NOT AVBL
WILMINGTON     FAIR      66  53  63 E14G23    30.27S


$$

NCZ011>013-027>030-043-044-078>080-089-090>093-098-231400-
COASTAL PLAIN

CITY           SKY/WX    TMP DP  RH WIND       PRES   REMARKS
AHOSKIE        FAIR      60  51  71 E6        30.37S
CLINTON        FAIR      60  53  78 E6        30.30S
ELIZABETHTOWN  PTSUNNY   59  52  76 MISG      30.26F
GOLDSBORO      FAIR      60  52  76 E10       30.31R
GREENVILLE       N/A     63  50  63 SE12G18   30.34S HAZE
HAVELOCK       PTSUNNY   65  56  72 E10       30.33
KENANSVILLE    FAIR      63  54  72 E8        30.31S
KINSTON        FAIR      59  52  77 E6        30.34S
NEW BERN       FAIR      62  55  77 E8        30.34S
RICHLANDS      FAIR      62  54  74 E10       30.31S
ROCKY MOUNT    PTSUNNY   59  49  69 E6        30.34S
WASHINGTON     FAIR      65  51  59 E12G18    30.35S
WHITEVILLE     PTSUNNY   61  54  77 E9        30.24F

$$

AMZ130-135-150-152-154-156-158-170-250-252-270-ANZ085-086-088-633-658-670-231400-
MARINE OBSERVATIONS

STATION/POSITION TIME  TEMP    WIND        PRES    WAVE   SWELL
                       AIR SEA DIR/SP/G            HT/PER HT/PER
                 (UTC) (F)     (DEG/KT/KT) (MB)    (FT/S) (FT/S)
CHESAPEAKE LIGHT NOT AVBL
64 E VA BEACH    1250   54 50   80/ 12/ 12 1030.5    2/ 4   2/ 8
DUCK             1300   55 53   80/ 14/ 16 1028.6
2 E DUCK         1300      53                N/A     2/15
OREGON INLET     1300   57 56   70/  8/ 10 1028.6
13E OREGON INLT  1248      51                N/A     2/ 4   2/ 4
HATTERAS CG      1300   64 61              1027.8
DIAMOND BUOY     1310   66 71  100/ 19/ 23 1028.3
CAPE LOOKOUT     1300          100/ 16/ 17 1027.1
BEAUFORT LAB     1300   65 63  120/ 14/ 18 1027.0
30 SE NEW RVR IN 1308   67 65  110/ 16/ 19 1026.3
30 SE NEW RVR IN 1300      65                N/A     5/ 6
27 SE WRIGHTSVLE 1308   67 64  130/ 17/ 25 1025.3
5 SE WRIGHTSVLE  1308   64 61  110/ 12/ 16 1024.9
225 S CAPE HAT   1310   68 72  110/ 17/ 21 1025.3
41 SE CHARLESTON 1310   69 66  120/ 21/ 27 1020.8

$$



USA.gov is the U.S. government's official web portal to all federal, state and local government web resources and services.